| time (UTC) | temp F | wind direction | speed knots | gust knots | rain 1hr in | rain 24hr in | rain mn in | humidity % | barometer mb |
| 20260906231039 | 78 | 190 | 0.9 | 4.3 | 0.00 | 0.00 | 0.00 | 33 | 1023.7 |
| 20260906230539 | 78 | 190 | 0.0 | 4.3 | 0.00 | 0.00 | 0.00 | 35 | 1023.8 |
| 20260906230054 | 78 | 190 | 0.9 | 4.3 | 0.00 | 0.00 | 0.00 | 33 | 1023.8 |
| 20260906225538 | 78 | 0 | 0.0 | 6.1 | 0.00 | 0.00 | 0.00 | 34 | 1023.8 |
| 20260906225036 | 78 | 190 | 1.7 | 6.1 | 0.00 | 0.00 | 0.00 | 32 | 1023.8 |
| 20260906224551 | 78 | 190 | 0.9 | 2.6 | 0.00 | 0.00 | 0.00 | 35 | 1023.8 |
| 20260906224039 | 78 | 190 | 0.0 | 4.3 | 0.00 | 0.00 | 0.00 | 33 | 1023.8 |
| 20260906223541 | 78 | 190 | 0.9 | 4.3 | 0.00 | 0.00 | 0.00 | 33 | 1023.9 |
| 20260906223102 | 78 | 190 | 1.7 | 4.3 | 0.00 | 0.00 | 0.00 | 32 | 1024.0 |
| 20260906222536 | 78 | 190 | 0.9 | 6.1 | 0.00 | 0.00 | 0.00 | 32 | 1024.0 |
| 20260906222038 | 78 | 0 | 1.7 | 7.0 | 0.00 | 0.00 | 0.00 | 33 | 1023.9 |
| 20260906221555 | 78 | 190 | 0.9 | 7.8 | 0.00 | 0.00 | 0.00 | 31 | 1024.0 |
| 20260906221042 | 79 | 190 | 4.3 | 8.7 | 0.00 | 0.00 | 0.00 | 31 | 1023.9 |
| 20260906220542 | 79 | 190 | 2.6 | 8.7 | 0.00 | 0.00 | 0.00 | 31 | 1024.0 |
| 20260906220058 | 79 | 190 | 3.5 | 7.8 | 0.00 | 0.00 | 0.00 | 31 | 1023.9 |
| 20260906215536 | 80 | 190 | 1.7 | 5.2 | 0.00 | 0.00 | 0.00 | 30 | 1024.0 |
| 20260906215040 | 80 | 190 | 1.7 | 6.1 | 0.00 | 0.00 | 0.00 | 30 | 1024.0 |
| 20260906214608 | 80 | 190 | 2.6 | 6.1 | 0.00 | 0.00 | 0.00 | 29 | 1024.1 |
| 20260906214035 | 81 | 190 | 2.6 | 6.1 | 0.00 | 0.00 | 0.00 | 29 | 1024.0 |
| 20260906213536 | 82 | 190 | 2.6 | 7.0 | 0.00 | 0.00 | 0.00 | 29 | 1024.0 |
| 20260906213055 | 83 | 190 | 1.7 | 7.0 | 0.00 | 0.00 | 0.00 | 29 | 1024.1 |
| 20260906212540 | 82 | 190 | 2.6 | 7.8 | 0.00 | 0.00 | 0.00 | 31 | 1024.1 |
| 20260906212040 | 82 | 190 | 3.5 | 7.8 | 0.00 | 0.00 | 0.00 | 28 | 1024.2 |
| 20260906211556 | 82 | 190 | 3.5 | 7.8 | 0.00 | 0.00 | 0.00 | 28 | 1024.3 |
| 20260906211035 | 82 | 190 | 2.6 | 6.1 | 0.00 | 0.00 | 0.00 | 28 | 1024.3 |
| 20260906210539 | 83 | 190 | 1.7 | 6.1 | 0.00 | 0.00 | 0.00 | 28 | 1024.4 |
| 20260906210113 | 82 | 190 | 1.7 | 9.6 | 0.00 | 0.00 | 0.00 | 29 | 1024.5 |
| 20260906205540 | 82 | 190 | 2.6 | 9.6 | 0.00 | 0.00 | 0.00 | 29 | 1024.6 |
| 20260906205039 | 83 | 190 | 1.7 | 7.8 | 0.00 | 0.00 | 0.00 | 30 | 1024.6 |
| 20260906204608 | 83 | 190 | 0.9 | 7.8 | 0.00 | 0.00 | 0.00 | 29 | 1024.6 |
| 20260906204038 | 82 | 190 | 0.9 | 4.3 | 0.00 | 0.00 | 0.00 | 29 | 1024.7 |
| 20260906203539 | 81 | 190 | 0.9 | 6.1 | 0.00 | 0.00 | 0.00 | 30 | 1024.9 |
| 20260906203053 | 81 | 190 | 2.6 | 6.1 | 0.00 | 0.00 | 0.00 | 32 | 1024.9 |
| 20260906202535 | 82 | 190 | 2.6 | 6.1 | 0.00 | 0.00 | 0.00 | 31 | 1025.0 |
| 20260906202038 | 82 | 190 | 0.9 | 4.3 | 0.00 | 0.00 | 0.00 | 30 | 1025.1 |
| 20260906201556 | 82 | 190 | 1.7 | 4.3 | 0.00 | 0.00 | 0.00 | 28 | 1025.2 |
| 20260906201035 | 82 | 190 | 1.7 | 3.5 | 0.00 | 0.00 | 0.00 | 28 | 1025.2 |
| 20260906200539 | 82 | 190 | 0.9 | 3.5 | 0.00 | 0.00 | 0.00 | 26 | 1025.2 |
| 20260906200053 | 81 | 190 | 0.9 | 3.5 | 0.00 | 0.00 | 0.00 | 29 | 1025.4 |
| 20260906195538 | 81 | 190 | 0.0 | 2.6 | 0.00 | 0.00 | 0.00 | 28 | 1025.4 |
| 20260906195039 | 80 | 190 | 0.0 | 2.6 | 0.00 | 0.00 | 0.00 | 27 | 1025.5 |
| 20260906194558 | 79 | 190 | 0.0 | 2.6 | 0.00 | 0.00 | 0.00 | 31 | 1025.6 |
| 20260906194036 | 78 | 190 | 0.9 | 3.5 | 0.00 | 0.00 | 0.00 | 30 | 1025.7 |
| 20260906193535 | 81 | 190 | 0.9 | 5.2 | 0.00 | 0.00 | 0.00 | 28 | 1025.8 |
| 20260906193056 | 81 | 190 | 0.9 | 5.2 | 0.00 | 0.00 | 0.00 | 32 | 1025.8 |
| 20260906192535 | 81 | 190 | 1.7 | 4.3 | 0.00 | 0.00 | 0.00 | 26 | 1026.1 |
| 20260906192039 | 82 | 190 | 1.7 | 4.3 | 0.00 | 0.00 | 0.00 | 26 | 1026.1 |
| 20260906191603 | 82 | 190 | 0.0 | 2.6 | 0.00 | 0.00 | 0.00 | 29 | 1026.1 |
| 20260906191038 | 81 | 190 | 0.0 | 4.3 | 0.00 | 0.00 | 0.00 | 30 | 1026.2 |
| 20260906190539 | 80 | 190 | 0.9 | 4.3 | 0.00 | 0.00 | 0.00 | 26 | 1026.3 |
| 20260906190050 | 81 | 190 | 0.9 | 2.6 | 0.00 | 0.00 | 0.00 | 26 | 1026.6 |
| 20260906185535 | 80 | 0 | 0.0 | 4.3 | 0.00 | 0.00 | 0.00 | 26 | 1026.6 |
| 20260906185036 | 80 | 190 | 1.7 | 5.2 | 0.00 | 0.00 | 0.00 | 30 | 1026.7 |
| 20260906184558 | 80 | 190 | 0.9 | 5.2 | 0.00 | 0.00 | 0.00 | 27 | 1026.7 |
| 20260906184043 | 79 | 190 | 1.7 | 5.2 | 0.00 | 0.00 | 0.00 | 26 | 1026.8 |
| 20260906183538 | 76 | 190 | 0.9 | 2.6 | 0.00 | 0.00 | 0.00 | 30 | 1026.9 |
| 20260906183054 | 77 | 190 | 0.0 | 2.6 | 0.00 | 0.00 | 0.00 | 29 | 1026.9 |
| 20260906182536 | 77 | 190 | 0.0 | 3.5 | 0.00 | 0.00 | 0.00 | 37 | 1027.0 |
| 20260906182036 | 77 | 190 | 0.9 | 4.3 | 0.00 | 0.00 | 0.00 | 33 | 1027.2 |
| 20260906181554 | 76 | 190 | 0.0 | 4.3 | 0.00 | 0.00 | 0.00 | 33 | 1027.2 |
| 20260906181039 | 76 | 0 | 0.9 | 4.3 | 0.00 | 0.00 | 0.00 | 28 | 1027.6 |
| 20260906180541 | 75 | 190 | 0.0 | 2.6 | 0.00 | 0.00 | 0.00 | 28 | 1027.6 |
| 20260906180119 | 76 | 190 | 0.0 | 1.7 | 0.00 | 0.00 | 0.00 | 34 | 1027.7 |
| 20260906175538 | 74 | 190 | 0.0 | 1.7 | 0.00 | 0.00 | 0.00 | 31 | 1027.9 |
| 20260906175035 | 73 | 0 | 0.0 | 1.7 | 0.00 | 0.00 | 0.00 | 38 | 1028.0 |
| 20260906174602 | 73 | 0 | 0.0 | 1.7 | 0.00 | 0.00 | 0.00 | 35 | 1028.1 |
| 20260906174038 | 73 | 0 | 0.0 | 2.6 | 0.00 | 0.00 | 0.00 | 35 | 1028.1 |
| 20260906173539 | 73 | 0 | 0.0 | 2.6 | 0.00 | 0.00 | 0.00 | 38 | 1028.2 |
| 20260906173059 | 73 | 190 | 0.0 | 1.7 | 0.00 | 0.00 | 0.00 | 32 | 1028.4 |
| 20260906172536 | 73 | 0 | 0.0 | 3.5 | 0.00 | 0.00 | 0.00 | 32 | 1028.4 |
| 20260906172036 | 73 | 190 | 0.9 | 3.5 | 0.00 | 0.00 | 0.00 | 35 | 1028.4 |
| 20260906171550 | 72 | 0 | 1.7 | 5.2 | 0.00 | 0.00 | 0.00 | 36 | 1028.4 |
| 20260906171038 | 71 | 190 | 1.7 | 5.2 | 0.00 | 0.00 | 0.00 | 37 | 1028.4 |
| 20260906170538 | 71 | 190 | 0.9 | 2.6 | 0.00 | 0.00 | 0.00 | 39 | 1028.4 |
| 20260906170048 | 72 | 190 | 0.0 | 3.5 | 0.00 | 0.00 | 0.00 | 40 | 1028.5 |
| 20260906165538 | 71 | 0 | 0.0 | 3.5 | 0.00 | 0.00 | 0.00 | 40 | 1028.6 |
| 20260906165038 | 70 | 190 | 0.0 | 3.5 | 0.00 | 0.00 | 0.00 | 44 | 1028.6 |
| 20260906164555 | 69 | 190 | 0.0 | 1.7 | 0.00 | 0.00 | 0.00 | 44 | 1028.7 |
| 20260906164040 | 70 | 0 | 0.9 | 1.7 | 0.00 | 0.00 | 0.00 | 46 | 1028.9 |
| 20260906163538 | 69 | 0 | 0.0 | 1.7 | 0.00 | 0.00 | 0.00 | 44 | 1029.0 |
| 20260906163059 | 69 | 0 | 0.0 | 1.7 | 0.00 | 0.00 | 0.00 | 43 | 1029.1 |
| 20260906162539 | 67 | 190 | 0.0 | 1.7 | 0.00 | 0.00 | 0.00 | 49 | 1029.2 |
| 20260906162043 | 66 | 190 | 0.0 | 3.5 | 0.00 | 0.00 | 0.00 | 46 | 1029.3 |
| 20260906161558 | 66 | 190 | 0.0 | 3.5 | 0.00 | 0.00 | 0.00 | 47 | 1029.4 |
| 20260906161038 | 66 | 190 | 0.0 | 3.5 | 0.00 | 0.00 | 0.00 | 50 | 1029.4 |
| 20260906160539 | 65 | 0 | 0.0 | 2.6 | 0.00 | 0.00 | 0.00 | 48 | 1029.4 |
| 20260906160058 | 65 | 190 | 0.9 | 2.6 | 0.00 | 0.00 | 0.00 | 47 | 1029.4 |
| 20260906155538 | 65 | 0 | 0.0 | 1.7 | 0.00 | 0.00 | 0.00 | 49 | 1029.6 |
| 20260906155041 | 64 | 0 | 0.0 | 1.7 | 0.00 | 0.00 | 0.00 | 52 | 1029.6 |
| 20260906154554 | 64 | 190 | 0.0 | 1.7 | 0.00 | 0.00 | 0.00 | 50 | 1029.7 |
| 20260906154038 | 63 | 0 | 0.0 | 0.9 | 0.00 | 0.00 | 0.00 | 50 | 1029.7 |
| 20260906153538 | 62 | 0 | 0.0 | 2.6 | 0.00 | 0.00 | 0.00 | 50 | 1029.7 |
| 20260906153115 | 61 | 0 | 0.9 | 2.6 | 0.00 | 0.00 | 0.00 | 50 | 1029.9 |
| 20260906152538 | 61 | 0 | 0.0 | 1.7 | 0.00 | 0.00 | 0.00 | 53 | 1029.8 |
| 20260906152036 | 60 | 190 | 0.0 | 0.9 | 0.00 | 0.00 | 0.00 | 55 | 1029.9 |
| 20260906151602 | 60 | 0 | 0.0 | 0.9 | 0.00 | 0.00 | 0.00 | 55 | 1029.8 |
| 20260906151036 | 59 | 0 | 0.0 | 1.7 | 0.00 | 0.00 | 0.00 | 53 | 1029.9 |
| 20260906150536 | 59 | 0 | 0.0 | 1.7 | 0.00 | 0.00 | 0.00 | 54 | 1030.0 |
| 20260906150057 | 57 | 0 | 0.0 | 1.7 | 0.00 | 0.00 | 0.00 | 59 | 1030.1 |
| 20260906145539 | 55 | 0 | 0.0 | 1.7 | 0.00 | 0.00 | 0.00 | 62 | 1030.2 |
| 20260906145039 | 55 | 190 | 0.0 | 0.9 | 0.00 | 0.00 | 0.00 | 63 | 1030.2 |
| 20260906144601 | 55 | 190 | 0.0 | 0.9 | 0.00 | 0.00 | 0.00 | 63 | 1030.2 |
| 20260906144041 | 54 | 0 | 0.0 | 0.9 | 0.00 | 0.00 | 0.00 | 64 | 1030.1 |
| 20260906143539 | 54 | 190 | 0.0 | 0.9 | 0.00 | 0.00 | 0.00 | 62 | 1030.1 |
| 20260906143059 | 55 | 190 | 0.0 | 0.0 | 0.00 | 0.00 | 0.00 | 61 | 1030.2 |
| 20260906142536 | 55 | 0 | 0.0 | 0.0 | 0.00 | 0.00 | 0.00 | 59 | 1030.1 |
| 20260906142039 | 55 | 0 | 0.0 | 0.9 | 0.00 | 0.00 | 0.00 | 59 | 1030.1 |
| 20260906141554 | 54 | 0 | 0.0 | 0.9 | 0.00 | 0.00 | 0.00 | 61 | 1030.2 |
| 20260906141039 | 54 | 0 | 0.0 | 0.9 | 0.00 | 0.00 | 0.00 | 64 | 1030.0 |
| 20260906140536 | 53 | 190 | 0.0 | 0.9 | 0.00 | 0.00 | 0.00 | 65 | 1030.1 |
| 20260906140055 | 52 | 0 | 0.0 | 0.9 | 0.00 | 0.00 | 0.00 | 68 | 1030.0 |
| 20260906135535 | 50 | 0 | 0.0 | 0.9 | 0.00 | 0.00 | 0.00 | 70 | 1030.0 |
| 20260906135040 | 49 | 0 | 0.0 | 0.0 | 0.00 | 0.00 | 0.00 | 75 | 1030.0 |
| 20260906134614 | 46 | 0 | 0.0 | 0.0 | 0.00 | 0.00 | 0.00 | 79 | 1030.0 |
| 20260906134036 | 44 | 0 | 0.0 | 0.0 | 0.00 | 0.00 | 0.00 | 80 | 1030.0 |
| 20260906133537 | 44 | 0 | 0.0 | 0.0 | 0.00 | 0.00 | 0.00 | 80 | 1029.9 |
| 20260906133059 | 43 | 0 | 0.0 | 0.0 | 0.00 | 0.00 | 0.00 | 80 | 1029.9 |
| 20260906132536 | 42 | 0 | 0.0 | 0.0 | 0.00 | 0.00 | 0.00 | 82 | 1029.9 |
| 20260906132036 | 42 | 0 | 0.0 | 0.0 | 0.00 | 0.00 | 0.00 | 82 | 1029.7 |
| 20260906131556 | 42 | 0 | 0.0 | 0.0 | 0.00 | 0.00 | 0.00 | 82 | 1029.6 |
| 20260906131035 | 42 | 0 | 0.0 | 0.9 | 0.00 | 0.00 | 0.00 | 82 | 1029.6 |
| 20260906130539 | 42 | 0 | 0.0 | 0.9 | 0.00 | 0.00 | 0.00 | 82 | 1029.4 |
| 20260906130056 | 42 | 0 | 0.0 | 0.9 | 0.00 | 0.00 | 0.00 | 82 | 1029.4 |
| 20260906125536 | 42 | 0 | 0.0 | 0.0 | 0.00 | 0.00 | 0.00 | 83 | 1029.2 |
| 20260906125035 | 42 | 0 | 0.0 | 0.0 | 0.00 | 0.00 | 0.00 | 83 | 1029.2 |
| 20260906124554 | 41 | 0 | 0.0 | 0.0 | 0.00 | 0.00 | 0.00 | 84 | 1029.1 |
| 20260906124039 | 42 | 0 | 0.0 | 0.0 | 0.00 | 0.00 | 0.00 | 82 | 1029.0 |
| 20260906123537 | 42 | 0 | 0.0 | 0.0 | 0.00 | 0.00 | 0.00 | 82 | 1029.1 |
| 20260906123104 | 42 | 0 | 0.0 | 0.0 | 0.00 | 0.00 | 0.00 | 82 | 1029.0 |
| 20260906122535 | 42 | 0 | 0.0 | 0.0 | 0.00 | 0.00 | 0.00 | 82 | 1028.9 |
| 20260906122035 | 42 | 0 | 0.0 | 0.0 | 0.00 | 0.00 | 0.00 | 82 | 1029.0 |
| 20260906121553 | 42 | 0 | 0.0 | 0.0 | 0.00 | 0.00 | 0.00 | 82 | 1028.7 |
| 20260906121040 | 42 | 0 | 0.0 | 0.0 | 0.00 | 0.00 | 0.00 | 82 | 1028.7 |
| 20260906120542 | 42 | 0 | 0.0 | 0.0 | 0.00 | 0.00 | 0.00 | 82 | 1028.7 |
| 20260906115539 | 42 | 0 | 0.0 | 0.0 | 0.00 | 0.00 | 0.00 | 83 | 1028.6 |
| 20260906115039 | 42 | 0 | 0.0 | 0.0 | 0.00 | 0.00 | 0.00 | 82 | 1028.5 |
| 20260906114555 | 43 | 0 | 0.0 | 0.0 | 0.00 | 0.00 | 0.00 | 82 | 1028.7 |
| 20260906114038 | 43 | 0 | 0.0 | 0.0 | 0.00 | 0.00 | 0.00 | 81 | 1028.7 |
| 20260906113538 | 43 | 0 | 0.0 | 0.0 | 0.00 | 0.00 | 0.00 | 82 | 1028.6 |
| 20260906113059 | 43 | 0 | 0.0 | 0.0 | 0.00 | 0.00 | 0.00 | 82 | 1028.6 |
| 20260906112536 | 43 | 0 | 0.0 | 0.0 | 0.00 | 0.00 | 0.00 | 82 | 1028.6 |
| 20260906112038 | 43 | 0 | 0.0 | 0.0 | 0.00 | 0.00 | 0.00 | 81 | 1028.6 |
| 20260906111553 | 43 | 0 | 0.0 | 0.0 | 0.00 | 0.00 | 0.00 | 80 | 1028.6 |
| 20260906111039 | 43 | 0 | 0.0 | 0.0 | 0.00 | 0.00 | 0.00 | 80 | 1028.6 |
| 20260906110538 | 44 | 0 | 0.0 | 0.0 | 0.00 | 0.00 | 0.00 | 81 | 1028.5 |
| 20260906110054 | 44 | 0 | 0.0 | 0.0 | 0.00 | 0.00 | 0.00 | 81 | 1028.4 |
| 20260906105539 | 44 | 0 | 0.0 | 0.0 | 0.00 | 0.00 | 0.00 | 80 | 1028.5 |
| 20260906105041 | 44 | 0 | 0.0 | 0.0 | 0.00 | 0.00 | 0.00 | 80 | 1028.5 |
| 20260906104551 | 44 | 0 | 0.0 | 0.0 | 0.00 | 0.00 | 0.00 | 81 | 1028.4 |
| 20260906104040 | 45 | 0 | 0.0 | 0.0 | 0.00 | 0.00 | 0.00 | 81 | 1028.4 |
| 20260906103539 | 45 | 0 | 0.0 | 0.0 | 0.00 | 0.00 | 0.00 | 81 | 1028.5 |
| 20260906103107 | 45 | 0 | 0.0 | 0.0 | 0.00 | 0.00 | 0.00 | 82 | 1028.5 |
| 20260906102541 | 45 | 0 | 0.0 | 0.0 | 0.00 | 0.00 | 0.00 | 81 | 1028.4 |
| 20260906102038 | 45 | 0 | 0.0 | 0.0 | 0.00 | 0.00 | 0.00 | 81 | 1028.3 |
| 20260906101555 | 45 | 0 | 0.0 | 0.0 | 0.00 | 0.00 | 0.00 | 81 | 1028.4 |
| 20260906101038 | 45 | 0 | 0.0 | 0.0 | 0.00 | 0.00 | 0.00 | 82 | 1028.3 |
| 20260906100539 | 45 | 0 | 0.0 | 0.0 | 0.00 | 0.00 | 0.00 | 81 | 1028.3 |
| 20260906095538 | 45 | 0 | 0.0 | 0.0 | 0.00 | 0.00 | 0.00 | 81 | 1028.2 |
| 20260906095040 | 46 | 0 | 0.0 | 0.0 | 0.00 | 0.00 | 0.00 | 80 | 1028.2 |
| 20260906094555 | 46 | 0 | 0.0 | 0.0 | 0.00 | 0.00 | 0.00 | 80 | 1028.3 |
| 20260906094038 | 46 | 0 | 0.0 | 0.0 | 0.00 | 0.00 | 0.00 | 79 | 1028.2 |
| 20260906093537 | 47 | 0 | 0.0 | 0.0 | 0.00 | 0.00 | 0.00 | 78 | 1028.1 |
| 20260906093100 | 47 | 0 | 0.0 | 0.0 | 0.00 | 0.00 | 0.00 | 77 | 1028.0 |
| 20260906092540 | 47 | 0 | 0.0 | 0.0 | 0.00 | 0.00 | 0.00 | 78 | 1028.0 |
| 20260906092037 | 47 | 0 | 0.0 | 0.0 | 0.00 | 0.00 | 0.00 | 76 | 1028.1 |
| 20260906091552 | 48 | 0 | 0.0 | 0.0 | 0.00 | 0.00 | 0.00 | 76 | 1028.1 |
| 20260906091039 | 48 | 0 | 0.0 | 0.0 | 0.00 | 0.00 | 0.00 | 76 | 1027.9 |
| 20260906090537 | 48 | 0 | 0.0 | 0.0 | 0.00 | 0.00 | 0.00 | 76 | 1028.0 |
| 20260906090116 | 48 | 0 | 0.0 | 0.0 | 0.00 | 0.00 | 0.00 | 77 | 1028.0 |
| 20260906085536 | 48 | 0 | 0.0 | 0.0 | 0.00 | 0.00 | 0.00 | 76 | 1027.9 |
| 20260906085036 | 48 | 0 | 0.0 | 0.0 | 0.00 | 0.00 | 0.00 | 76 | 1027.8 |
| 20260906084558 | 48 | 0 | 0.0 | 0.0 | 0.00 | 0.00 | 0.00 | 76 | 1027.9 |
| 20260906084037 | 48 | 0 | 0.0 | 0.9 | 0.00 | 0.00 | 0.00 | 76 | 1027.9 |
| 20260906083537 | 48 | 0 | 0.0 | 0.9 | 0.00 | 0.00 | 0.00 | 77 | 1027.8 |
| 20260906083055 | 48 | 0 | 0.0 | 0.9 | 0.00 | 0.00 | 0.00 | 76 | 1027.7 |
| 20260906082537 | 48 | 190 | 0.0 | 0.0 | 0.00 | 0.00 | 0.00 | 77 | 1027.8 |
| 20260906082038 | 48 | 0 | 0.0 | 0.0 | 0.00 | 0.00 | 0.00 | 76 | 1027.7 |
| 20260906081557 | 48 | 0 | 0.0 | 0.0 | 0.00 | 0.00 | 0.00 | 77 | 1027.9 |
| 20260906081038 | 48 | 0 | 0.0 | 0.0 | 0.00 | 0.00 | 0.00 | 77 | 1027.9 |
| 20260906080538 | 48 | 0 | 0.0 | 0.0 | 0.00 | 0.00 | 0.00 | 76 | 1027.9 |
| 20260906080125 | 48 | 0 | 0.0 | 0.0 | 0.00 | 0.00 | 0.00 | 76 | 1027.9 |
| 20260906075538 | 48 | 0 | 0.0 | 0.0 | 0.00 | 0.00 | 0.00 | 75 | 1027.9 |
| 20260906075038 | 49 | 0 | 0.0 | 0.9 | 0.00 | 0.00 | 0.00 | 75 | 1027.8 |
| 20260906074608 | 49 | 0 | 0.0 | 0.9 | 0.00 | 0.00 | 0.00 | 75 | 1027.9 |
| 20260906074037 | 49 | 190 | 0.0 | 0.9 | 0.00 | 0.00 | 0.00 | 74 | 1027.9 |
| 20260906073539 | 50 | 0 | 0.0 | 0.9 | 0.00 | 0.00 | 0.00 | 74 | 1027.9 |
| 20260906073110 | 50 | 0 | 0.0 | 0.9 | 0.00 | 0.00 | 0.00 | 74 | 1027.9 |
| 20260906072537 | 50 | 190 | 0.0 | 0.0 | 0.00 | 0.00 | 0.00 | 74 | 1027.7 |
| 20260906072037 | 50 | 0 | 0.0 | 0.9 | 0.00 | 0.00 | 0.00 | 74 | 1027.7 |
| 20260906071555 | 50 | 0 | 0.0 | 0.9 | 0.00 | 0.00 | 0.00 | 73 | 1027.7 |
| 20260906071038 | 51 | 0 | 0.0 | 0.9 | 0.00 | 0.00 | 0.00 | 73 | 1027.7 |
| 20260906070538 | 51 | 0 | 0.0 | 1.7 | 0.00 | 0.00 | 0.00 | 73 | 1027.6 |
| 20260906070057 | 51 | 0 | 0.9 | 1.7 | 0.00 | 0.00 | 0.00 | 72 | 1027.6 |
| 20260906065539 | 52 | 190 | 0.0 | 1.7 | 0.00 | 0.00 | 0.00 | 72 | 1027.5 |
| 20260906065038 | 52 | 0 | 0.0 | 1.7 | 0.00 | 0.00 | 0.00 | 70 | 1027.4 |
| 20260906064554 | 53 | 190 | 0.0 | 0.9 | 0.00 | 0.00 | 0.00 | 70 | 1027.5 |
| 20260906064038 | 53 | 0 | 0.0 | 0.9 | 0.00 | 0.00 | 0.00 | 69 | 1027.6 |
| 20260906063537 | 54 | 190 | 0.0 | 0.9 | 0.00 | 0.00 | 0.00 | 69 | 1027.6 |
| 20260906063057 | 54 | 0 | 0.0 | 0.0 | 0.00 | 0.00 | 0.00 | 68 | 1027.6 |
| 20260906062538 | 53 | 0 | 0.0 | 0.0 | 0.00 | 0.00 | 0.00 | 68 | 1027.6 |
| 20260906062039 | 54 | 0 | 0.0 | 0.0 | 0.00 | 0.00 | 0.00 | 68 | 1027.5 |
| 20260906061556 | 54 | 0 | 0.0 | 0.9 | 0.00 | 0.00 | 0.00 | 67 | 1027.4 |
| 20260906061037 | 54 | 0 | 0.0 | 0.9 | 0.00 | 0.00 | 0.00 | 67 | 1027.5 |
| 20260906060537 | 55 | 190 | 0.0 | 1.7 | 0.00 | 0.00 | 0.00 | 66 | 1027.5 |
| 20260906060053 | 55 | 0 | 0.0 | 2.6 | 0.00 | 0.00 | 0.00 | 66 | 1027.5 |
| 20260906055538 | 55 | 0 | 0.9 | 2.6 | 0.00 | 0.00 | 0.00 | 65 | 1027.4 |
| 20260906055038 | 56 | 190 | 0.0 | 1.7 | 0.00 | 0.00 | 0.00 | 65 | 1027.4 |
| 20260906054553 | 56 | 190 | 0.0 | 1.7 | 0.00 | 0.00 | 0.00 | 65 | 1027.4 |
| 20260906054039 | 56 | 190 | 0.9 | 1.7 | 0.00 | 0.00 | 0.00 | 65 | 1027.4 |
| 20260906053538 | 55 | 190 | 0.0 | 1.7 | 0.00 | 0.00 | 0.00 | 65 | 1027.4 |
| 20260906053058 | 55 | 0 | 0.0 | 0.0 | 0.00 | 0.00 | 0.00 | 67 | 1027.4 |
| 20260906052540 | 56 | 0 | 0.0 | 0.0 | 0.00 | 0.00 | 0.00 | 67 | 1027.2 |
| 20260906052037 | 56 | 0 | 0.0 | 0.0 | 0.00 | 0.00 | 0.00 | 66 | 1027.2 |
| 20260906051603 | 56 | 0 | 0.0 | 0.0 | 0.00 | 0.00 | 0.00 | 65 | 1027.2 |
| 20260906051038 | 57 | 0 | 0.0 | 0.0 | 0.00 | 0.00 | 0.00 | 65 | 1027.1 |
| 20260906050537 | 57 | 0 | 0.0 | 0.0 | 0.00 | 0.00 | 0.00 | 64 | 1027.1 |
| 20260906050106 | 57 | 0 | 0.0 | 0.0 | 0.00 | 0.00 | 0.00 | 63 | 1027.0 |
| 20260906045538 | 58 | 0 | 0.0 | 0.0 | 0.00 | 0.00 | 0.00 | 60 | 1026.9 |
| 20260906045039 | 58 | 0 | 0.0 | 0.0 | 0.00 | 0.00 | 0.00 | 60 | 1026.9 |
| 20260906044559 | 58 | 0 | 0.0 | 0.0 | 0.00 | 0.00 | 0.00 | 59 | 1026.9 |
| 20260906044042 | 59 | 0 | 0.0 | 0.0 | 0.00 | 0.00 | 0.00 | 58 | 1026.9 |
| 20260906043542 | 59 | 0 | 0.0 | 0.0 | 0.00 | 0.00 | 0.00 | 59 | 1027.0 |
| 20260906043101 | 59 | 0 | 0.0 | 0.0 | 0.00 | 0.00 | 0.00 | 58 | 1027.1 |
| 20260906042538 | 59 | 0 | 0.0 | 0.0 | 0.00 | 0.00 | 0.00 | 58 | 1027.1 |
| 20260906042037 | 60 | 0 | 0.0 | 0.0 | 0.00 | 0.00 | 0.00 | 56 | 1027.0 |
| 20260906041602 | 60 | 0 | 0.0 | 0.0 | 0.00 | 0.00 | 0.00 | 57 | 1027.1 |
| 20260906041037 | 61 | 0 | 0.0 | 0.0 | 0.00 | 0.00 | 0.00 | 59 | 1026.9 |
| 20260906040537 | 62 | 0 | 0.0 | 0.0 | 0.00 | 0.00 | 0.00 | 58 | 1026.9 |
| 20260906040054 | 62 | 0 | 0.0 | 0.0 | 0.00 | 0.00 | 0.00 | 56 | 1026.8 |
| 20260906035541 | 63 | 0 | 0.0 | 0.0 | 0.00 | 0.00 | 0.00 | 53 | 1026.9 |
| 20260906035039 | 63 | 0 | 0.0 | 0.0 | 0.00 | 0.00 | 0.00 | 53 | 1026.8 |
| 20260906034608 | 63 | 0 | 0.0 | 0.0 | 0.00 | 0.00 | 0.00 | 51 | 1026.9 |
| 20260906034038 | 63 | 0 | 0.0 | 0.0 | 0.00 | 0.00 | 0.00 | 53 | 1026.7 |
| 20260906033538 | 63 | 0 | 0.0 | 0.0 | 0.00 | 0.00 | 0.00 | 54 | 1026.7 |
| 20260906033056 | 63 | 0 | 0.0 | 0.0 | 0.00 | 0.00 | 0.00 | 55 | 1026.8 |
| 20260906032539 | 63 | 0 | 0.0 | 0.0 | 0.00 | 0.00 | 0.00 | 54 | 1026.6 |
| 20260906032037 | 63 | 0 | 0.0 | 0.0 | 0.00 | 0.00 | 0.00 | 54 | 1026.5 |
| 20260906031552 | 64 | 0 | 0.0 | 0.0 | 0.00 | 0.00 | 0.00 | 52 | 1026.4 |
| 20260906031038 | 64 | 0 | 0.0 | 0.0 | 0.00 | 0.00 | 0.00 | 54 | 1026.3 |
| 20260906030538 | 64 | 0 | 0.0 | 0.0 | 0.00 | 0.00 | 0.00 | 51 | 1026.2 |
| 20260906030056 | 65 | 0 | 0.0 | 0.0 | 0.00 | 0.00 | 0.00 | 51 | 1026.1 |
| 20260906025538 | 65 | 0 | 0.0 | 0.0 | 0.00 | 0.00 | 0.00 | 50 | 1026.0 |
| 20260906025038 | 65 | 190 | 0.0 | 0.0 | 0.00 | 0.00 | 0.00 | 52 | 1026.0 |
| 20260906024556 | 65 | 0 | 0.0 | 0.0 | 0.00 | 0.00 | 0.00 | 51 | 1025.9 |
| 20260906024039 | 65 | 0 | 0.0 | 0.0 | 0.00 | 0.00 | 0.00 | 54 | 1025.8 |
| 20260906023538 | 65 | 0 | 0.0 | 0.0 | 0.00 | 0.00 | 0.00 | 52 | 1025.7 |
| 20260906023051 | 66 | 0 | 0.0 | 0.0 | 0.00 | 0.00 | 0.00 | 53 | 1025.5 |
| 20260906022538 | 66 | 0 | 0.0 | 0.0 | 0.00 | 0.00 | 0.00 | 50 | 1025.4 |
| 20260906022038 | 67 | 190 | 0.0 | 0.0 | 0.00 | 0.00 | 0.00 | 50 | 1025.5 |
| 20260906021550 | 68 | 0 | 0.0 | 0.0 | 0.00 | 0.00 | 0.00 | 49 | 1025.3 |
| 20260906021041 | 68 | 0 | 0.0 | 2.6 | 0.00 | 0.00 | 0.00 | 47 | 1025.3 |
| 20260906020539 | 69 | 0 | 0.0 | 2.6 | 0.00 | 0.00 | 0.00 | 46 | 1025.2 |
| 20260906020100 | 69 | 0 | 0.0 | 0.9 | 0.00 | 0.00 | 0.00 | 48 | 1025.2 |
| 20260906015538 | 70 | 0 | 0.0 | 0.0 | 0.00 | 0.00 | 0.00 | 45 | 1025.1 |
| 20260906015038 | 70 | 0 | 0.0 | 1.7 | 0.00 | 0.00 | 0.00 | 44 | 1025.1 |
| 20260906014554 | 71 | 0 | 0.0 | 1.7 | 0.00 | 0.00 | 0.00 | 43 | 1025.1 |
| 20260906014039 | 71 | 190 | 0.0 | 2.6 | 0.00 | 0.00 | 0.00 | 44 | 1025.0 |
| 20260906013538 | 72 | 0 | 0.0 | 5.2 | 0.00 | 0.00 | 0.00 | 42 | 1025.0 |
| 20260906013103 | 73 | 190 | 0.9 | 7.0 | 0.00 | 0.00 | 0.00 | 40 | 1024.8 |
| 20260906012537 | 73 | 190 | 2.6 | 7.0 | 0.00 | 0.00 | 0.00 | 40 | 1024.8 |
| 20260906012038 | 73 | 190 | 3.5 | 7.0 | 0.00 | 0.00 | 0.00 | 39 | 1024.8 |
| 20260906011556 | 74 | 190 | 2.6 | 7.0 | 0.00 | 0.00 | 0.00 | 39 | 1024.8 |
| 20260906011038 | 75 | 190 | 2.6 | 7.0 | 0.00 | 0.00 | 0.00 | 38 | 1024.6 |
| 20260906010538 | 75 | 190 | 2.6 | 6.1 | 0.00 | 0.00 | 0.00 | 37 | 1024.6 |
| 20260906010058 | 76 | 190 | 1.7 | 6.1 | 0.00 | 0.00 | 0.00 | 37 | 1024.6 |
| 20260906005538 | 77 | 190 | 1.7 | 6.1 | 0.00 | 0.00 | 0.00 | 35 | 1024.6 |
| 20260906005038 | 77 | 190 | 2.6 | 6.1 | 0.00 | 0.00 | 0.00 | 35 | 1024.7 |
| 20260906004603 | 77 | 190 | 1.7 | 6.1 | 0.00 | 0.00 | 0.00 | 36 | 1024.6 |
| 20260906004038 | 77 | 190 | 1.7 | 4.3 | 0.00 | 0.00 | 0.00 | 35 | 1024.6 |
| 20260906003537 | 77 | 190 | 2.6 | 8.7 | 0.00 | 0.00 | 0.00 | 34 | 1024.6 |
| 20260906003059 | 78 | 190 | 3.5 | 8.7 | 0.00 | 0.00 | 0.00 | 34 | 1024.6 |
| 20260906002537 | 78 | 190 | 1.7 | 5.2 | 0.00 | 0.00 | 0.00 | 33 | 1024.6 |
| 20260906002041 | 78 | 190 | 1.7 | 6.1 | 0.00 | 0.00 | 0.00 | 33 | 1024.5 |
| 20260906001555 | 78 | 190 | 1.7 | 6.1 | 0.00 | 0.00 | 0.00 | 33 | 1024.6 |
| 20260906001038 | 79 | 190 | 2.6 | 6.1 | 0.00 | 0.00 | 0.00 | 32 | 1024.5 |
| 20260906000540 | 79 | 190 | 1.7 | 6.1 | 0.00 | 0.00 | 0.00 | 32 | 1024.5 |
| 20260906000108 | 79 | 190 | 0.0 | 6.1 | 0.00 | 0.00 | 0.00 | 33 | 1024.5 |
| 20260905235538 | 79 | 190 | 0.9 | 6.1 | 0.00 | 0.00 | 0.00 | 31 | 1024.6 |
| 20260905235038 | 80 | 190 | 1.7 | 4.3 | 0.00 | 0.00 | 0.00 | 30 | 1024.5 |
| 20260905234608 | 80 | 190 | 0.0 | 4.3 | 0.00 | 0.00 | 0.00 | 30 | 1024.6 |
| 20260905234038 | 80 | 190 | 1.7 | 4.3 | 0.00 | 0.00 | 0.00 | 30 | 1024.6 |
| 20260905233539 | 80 | 190 | 1.7 | 4.3 | 0.00 | 0.00 | 0.00 | 29 | 1024.6 |
| 20260905233056 | 81 | 190 | 1.7 | 4.3 | 0.00 | 0.00 | 0.00 | 28 | 1024.6 |
| 20260905232536 | 82 | 190 | 1.7 | 4.3 | 0.00 | 0.00 | 0.00 | 28 | 1024.6 |
| 20260905232038 | 82 | 190 | 0.0 | 4.3 | 0.00 | 0.00 | 0.00 | 31 | 1024.5 |
| 20260905231555 | 82 | 0 | 1.7 | 7.8 | 0.00 | 0.00 | 0.00 | 31 | 1024.4 |